TimeCDT,TemperatureF,Dew PointF,Humidity,Sea Level PressureIn,VisibilityMPH,Wind Direction,Wind SpeedMPH,Gust SpeedMPH,PrecipitationIn,Events,Conditions,WindDirDegrees,DateUTC
12:53 AM,37.9,27.0,65,30.07,10.0,Calm,Calm,-,N/A,,Clear,0,2013-10-27 05:53:00
1:53 AM,36.0,28.0,73,30.05,10.0,Calm,Calm,-,N/A,,Clear,0,2013-10-27 06:53:00
2:53 AM,34.0,27.0,75,30.04,10.0,Calm,Calm,-,N/A,,Clear,0,2013-10-27 07:53:00
3:53 AM,30.9,25.0,79,30.04,10.0,Calm,Calm,-,N/A,,Clear,0,2013-10-27 08:53:00
4:53 AM,28.9,25.0,85,30.03,10.0,Calm,Calm,-,N/A,,Clear,0,2013-10-27 09:53:00
5:53 AM,28.0,26.1,92,30.04,10.0,Calm,Calm,-,N/A,,Clear,0,2013-10-27 10:53:00
6:53 AM,28.9,26.1,89,30.04,10.0,Calm,Calm,-,N/A,,Clear,0,2013-10-27 11:53:00
7:53 AM,33.1,28.0,82,30.04,10.0,Calm,Calm,-,N/A,,Clear,0,2013-10-27 12:53:00
8:53 AM,39.0,30.0,70,30.04,10.0,SW,9.2,-,N/A,,Clear,220,2013-10-27 13:53:00
9:53 AM,42.1,30.9,65,30.03,10.0,Variable,5.8,-,N/A,,Clear,0,2013-10-27 14:53:00
10:53 AM,45.0,28.9,53,30.02,10.0,WSW,5.8,-,N/A,,Clear,250,2013-10-27 15:53:00
11:53 AM,48.0,28.9,48,30.01,10.0,SW,9.2,18.4,N/A,,Clear,230,2013-10-27 16:53:00
12:53 PM,50.0,30.0,46,29.97,10.0,Variable,5.8,17.3,N/A,,Clear,0,2013-10-27 17:53:00
1:53 PM,52.0,28.0,40,29.94,10.0,WSW,10.4,18.4,N/A,,Clear,240,2013-10-27 18:53:00
2:53 PM,53.1,28.0,38,29.91,10.0,SSW,11.5,17.3,N/A,,Clear,200,2013-10-27 19:53:00
3:53 PM,54.0,28.0,37,29.91,10.0,SW,10.4,-,N/A,,Clear,220,2013-10-27 20:53:00
4:53 PM,54.0,28.0,37,29.91,10.0,SW,5.8,-,N/A,,Clear,230,2013-10-27 21:53:00
5:53 PM,51.1,28.0,41,29.92,10.0,SSW,5.8,-,N/A,,Clear,210,2013-10-27 22:53:00
6:53 PM,50.0,28.9,44,29.94,10.0,South,5.8,-,N/A,,Clear,190,2013-10-27 23:53:00
7:53 PM,48.0,28.9,48,29.96,10.0,SSW,3.5,-,N/A,,Clear,200,2013-10-28 00:53:00
8:53 PM,41.0,30.9,67,30.01,10.0,Calm,Calm,-,N/A,,Clear,0,2013-10-28 01:53:00
9:53 PM,42.1,30.0,62,30.04,10.0,SSW,3.5,-,N/A,,Clear,210,2013-10-28 02:53:00
10:53 PM,37.0,28.9,73,30.04,10.0,Calm,Calm,-,N/A,,Clear,0,2013-10-28 03:53:00
11:53 PM,37.0,30.0,76,30.05,10.0,Calm,Calm,-,N/A,,Partly Cloudy,0,2013-10-28 04:53:00